QPF
0.00 0.00 0.00 0.01 0.01 0.01 0.01 0.02 0.02 0.02 0.01 0.01 0.01 0.01 0.01 0.01 0.01 0.01 0.01 0.01 0.01 0.01 0.01 0.01 0.01 0.01 0.00 0.00 0.01 0.00 0.00 0.00 0.00 0.00 0.00 0.01 0.01 0.01 0.00 0.00 0.00 0.00 0.01
0.00 0.00 0.00 0.00 0.01 0.01 0.02 0.02 0.02 0.01 0.01 0.01 0.01 0.00 0.00 0.00 0.00 0.00 0.01 0.01 0.01 0.00 0.00 0.01 0.01 0.00 0.00 0.00 0.00 0.00 0.00 0.00 0.00 0.00 0.00 0.00 0.00 0.00 0.00 0.00 0.00 0.00 0.01
0.00 0.00 0.00 0.00 0.01 0.01 0.01 0.02 0.02 0.01 0.01 0.00 0.00 0.01 0.00 0.00 0.00 0.00 0.00 0.01 0.01 0.00 0.00 0.00 0.00 0.00 0.00 0.00 0.00 0.00 0.00 0.00 0.00 0.00 0.00 0.00 0.00 0.00 0.00 0.00 0.00 0.00 0.00
0.00 0.00 0.00 0.00 0.01 0.01 0.01 0.02 0.01 0.01 0.01 0.01 0.01 0.01 0.01 0.00 0.00 0.00 0.00 0.00 0.00 0.00 0.00 0.00 0.00 0.00 0.00 0.00 0.00 0.00 0.00 0.00 0.00 0.00 0.00 0.00 0.00 0.00 0.00 0.00 0.00 0.00 0.00
0.00 0.00 0.00 0.00 0.01 0.01 0.01 0.01 0.02 0.01 0.01 0.01 0.01 0.01 0.00 0.00 0.00 0.00 0.00 0.00 0.00 0.00 0.00 0.00 0.00 0.00 0.00 0.00 0.00 0.00 0.00 0.00 0.00 0.00 0.00 0.00 0.00 0.00 0.00 0.00 0.00 0.00 0.00
0.00 0.00 0.00 0.00 0.01 0.01 0.01 0.01 0.02 0.01 0.01 0.01 0.01 0.01 0.00 0.00 0.00 0.00 0.00 0.00 0.00 0.00 0.00 0.00 0.00 0.00 0.00 0.00 0.00 0.00 0.00 0.00 0.00 0.00 0.00 0.00 0.00 0.00 0.00 0.00 0.00 0.00 0.00
0.00 0.00 0.00 0.00 0.01 0.01 0.01 0.01 0.02 0.01 0.01 0.01 0.01 0.01 0.00 0.00 0.00 0.00 0.00 0.00 0.00 0.00 0.00 0.00 0.00 0.00 0.00 0.00 0.00 0.00 0.00 0.00 0.00 0.00 0.00 0.00 0.00 0.00 0.00 0.00 0.00 0.00 0.00
0.00 0.00 0.00 0.00 0.01 0.01 0.01 0.01 0.02 0.01 0.01 0.01 0.01 0.01 0.00 0.00 0.00 0.00 0.00 0.00 0.00 0.00 0.00 0.00 0.00 0.00 0.00 0.00 0.00 0.00 0.00 0.00 0.00 0.00 0.00 0.00 0.00 0.00 0.00 0.00 0.00 0.00 0.00
0.00 0.00 0.01 0.01 0.01 0.01 0.01 0.01 0.01 0.01 0.01 0.01 0.01 0.01 0.01 0.00 0.00 0.00 0.00 0.00 0.00 0.00 0.00 0.00 0.00 0.00 0.00 0.00 0.00 0.00 0.00 0.00 0.00 0.00 0.00 0.00 0.00 0.00 0.00 0.00 0.00 0.00 0.00
0.00 0.00 0.01 0.01 0.01 0.01 0.01 0.01 0.01 0.01 0.01 0.01 0.01 0.01 0.01 0.00 0.00 0.00 0.00 0.00 0.00 0.00 0.00 0.00 0.00 0.00 0.00 0.00 0.00 0.00 0.00 0.00 0.00 0.00 0.00 0.00 0.00 0.00 0.00 0.00 0.00 0.00 0.00
0.00 0.00 0.01 0.01 0.02 0.02 0.01 0.01 0.00 0.00 0.00 0.01 0.00 0.00 0.00 0.01 0.01 0.00 0.00 0.00 0.00 0.00 0.00 0.00 0.00 0.00 0.00 0.00 0.00 0.00 0.00 0.00 0.00 0.00 0.00 0.00 0.00 0.00 0.00 0.00 0.00 0.00 0.00
0.00 0.00 0.00 0.01 0.02 0.01 0.01 0.01 0.01 0.01 0.01 0.01 0.01 0.01 0.01 0.01 0.01 0.00 0.00 0.00 0.00 0.00 0.00 0.00 0.00 0.00 0.00 0.00 0.00 0.00 0.00 0.00 0.00 0.00 0.00 0.00 0.00 0.00 0.00 0.00 0.00 0.01 0.01
0.00 0.00 0.00 0.01 0.01 0.01 0.01 0.01 0.01 0.01 0.01 0.01 0.01 0.00 0.00 0.01 0.01 0.01 0.00 0.00 0.00 0.00 0.00 0.00 0.00 0.00 0.00 0.00 0.00 0.00 0.00 0.00 0.00 0.00 0.00 0.00 0.00 0.00 0.00 0.00 0.00 0.00 0.01
0.00 0.00 0.00 0.01 0.01 0.01 0.01 0.01 0.01 0.00 0.00 0.00 0.00 0.00 0.00 0.00 0.00 0.00 0.00 0.00 0.00 0.00 0.00 0.00 0.00 0.00 0.00 0.00 0.00 0.00 0.00 0.00 0.00 0.00 0.00 0.00 0.00 0.00 0.00 0.00 0.00 0.00 0.00
0.00 0.00 0.00 0.01 0.01 0.01 0.01 0.01 0.00 0.00 0.00 0.00 0.00 0.00 0.00 0.00 0.00 0.00 0.00 0.00 0.00 0.00 0.00 0.00 0.00 0.00 0.00 0.00 0.00 0.00 0.00 0.00 0.00 0.00 0.00 0.00 0.00 0.00 0.00 0.00 0.00 0.00 0.00
0.00 0.00 0.00 0.00 0.00 0.01 0.01 0.01 0.00 0.00 0.00 0.00 0.00 0.00 0.00 0.00 0.00 0.00 0.00 0.00 0.00 0.00 0.00 0.00 0.00 0.00 0.00 0.00 0.00 0.00 0.00 0.00 0.00 0.00 0.00 0.00 0.00 0.00 0.00 0.00 0.00 0.00 0.00
0.00 0.00 0.00 0.00 0.00 0.01 0.01 0.01 0.00 0.00 0.00 0.00 0.00 0.00 0.00 0.00 0.00 0.00 0.00 0.00 0.00 0.00 0.00 0.00 0.00 0.00 0.00 0.00 0.00 0.00 0.00 0.00 0.00 0.00 0.00 0.00 0.00 0.00 0.00 0.00 0.00 0.00 0.00
0.00 0.00 0.00 0.00 0.00 0.00 0.01 0.01 0.01 0.00 0.00 0.00 0.00 0.00 0.00 0.00 0.00 0.00 0.00 0.00 0.00 0.00 0.00 0.00 0.00 0.00 0.00 0.00 0.00 0.00 0.00 0.00 0.00 0.00 0.00 0.00 0.00 0.00 0.00 0.00 0.00 0.00 0.00
0.00 0.00 0.00 0.00 0.00 0.00 0.01 0.01 0.01 0.01 0.00 0.00 0.00 0.00 0.00 0.00 0.00 0.00 0.00 0.00 0.00 0.00 0.00 0.00 0.00 0.00 0.00 0.00 0.00 0.00 0.00 0.00 0.00 0.00 0.00 0.00 0.00 0.00 0.00 0.00 0.00 0.00 0.00
0.00 0.00 0.00 0.00 0.00 0.00 0.01 0.01 0.01 0.01 0.00 0.00 0.00 0.00 0.00 0.00 0.00 0.00 0.00 0.00 0.00 0.00 0.00 0.00 0.00 0.00 0.00 0.00 0.00 0.00 0.00 0.00 0.00 0.00 0.00 0.00 0.00 0.00 0.00 0.00 0.00 0.00 0.00
0.00 0.00 0.00 0.00 0.00 0.00 0.00 0.01 0.01 0.00 0.00 0.00 0.00 0.00 0.00 0.00 0.00 0.00 0.00 0.00 0.00 0.00 0.00 0.01 0.01 0.00 0.00 0.00 0.00 0.00 0.00 0.00 0.00 0.00 0.00 0.00 0.00 0.00 0.00 0.00 0.00 0.00 0.00
0.00 0.00 0.00 0.00 0.00 0.00 0.00 0.00 0.00 0.00 0.00 0.00 0.00 0.00 0.00 0.00 0.00 0.00 0.00 0.00 0.00 0.00 0.00 0.00 0.00 0.00 0.00 0.00 0.00 0.00 0.00 0.00 0.00 0.00 0.00 0.00 0.00 0.00 0.00 0.00 0.00 0.00 0.00
0.00 0.00 0.00 0.00 0.00 0.00 0.00 0.00 0.00 0.00 0.00 0.00 0.00 0.00 0.00 0.00 0.00 0.00 0.00 0.00 0.00 0.00 0.00 0.00 0.00 0.00 0.00 0.00 0.00 0.00 0.00 0.00 0.00 0.00 0.00 0.00 0.00 0.00 0.00 0.00 0.00 0.00 0.00
0.00 0.00 0.00 0.00 0.00 0.00 0.00 0.00 0.00 0.00 0.00 0.00 0.00 0.00 0.00 0.00 0.00 0.00 0.00 0.00 0.00 0.00 0.00 0.00 0.00 0.00 0.00 0.00 0.00 0.00 0.00 0.00 0.00 0.00 0.00 0.00 0.00 0.00 0.00 0.00 0.00 0.00 0.00
0.00 0.00 0.00 0.00 0.00 0.00 0.00 0.00 0.00 0.00 0.00 0.00 0.00 0.00 0.00 0.00 0.00 0.00 0.00 0.00 0.00 0.00 0.00 0.00 0.00 0.00 0.00 0.00 0.00 0.00 0.00 0.00 0.00 0.00 0.00 0.00 0.00 0.00 0.00 0.00 0.00 0.00 0.00
0.00 0.00 0.00 0.00 0.00 0.00 0.00 0.00 0.00 0.00 0.00 0.00 0.00 0.00 0.00 0.00 0.00 0.00 0.00 0.00 0.00 0.00 0.00 0.00 0.00 0.00 0.00 0.00 0.00 0.00 0.00 0.00 0.00 0.00 0.00 0.00 0.00 0.00 0.00 0.00 0.00 0.00 0.00
MSLP
1017.87 1017.87 1017.95 1018.13 1018.41 1018.75 1019.11 1019.43 1019.68 1019.83 1019.89 1019.90 1019.90 1019.90 1019.95 1020.02 1020.12 1020.20 1020.24 1020.24 1020.19 1020.10 1020.01 1019.93 1019.88 1019.87 1019.88 1019.90 1019.91 1019.89 1019.84 1019.75 1019.65 1019.53 1019.41 1019.31 1019.22 1019.12 1019.03 1018.94 1018.84 1018.73 1018.63
1017.72 1017.81 1017.96 1018.21 1018.53 1018.89 1019.25 1019.56 1019.79 1019.94 1020.01 1020.05 1020.10 1020.17 1020.30 1020.45 1020.60 1020.73 1020.81 1020.82 1020.78 1020.70 1020.61 1020.54 1020.49 1020.48 1020.48 1020.47 1020.44 1020.37 1020.27 1020.14 1020.00 1019.87 1019.76 1019.67 1019.60 1019.53 1019.45 1019.36 1019.25 1019.12 1019.00
1017.61 1017.77 1018.00 1018.30 1018.66 1019.05 1019.40 1019.70 1019.92 1020.06 1020.15 1020.23 1020.33 1020.47 1020.66 1020.88 1021.08 1021.24 1021.33 1021.34 1021.29 1021.20 1021.11 1021.03 1020.99 1020.97 1020.95 1020.92 1020.85 1020.74 1020.60 1020.44 1020.28 1020.15 1020.06 1019.99 1019.95 1019.91 1019.85 1019.76 1019.64 1019.51 1019.37
1017.54 1017.77 1018.07 1018.43 1018.83 1019.22 1019.58 1019.87 1020.07 1020.22 1020.32 1020.43 1020.58 1020.78 1021.01 1021.26 1021.49 1021.65 1021.73 1021.72 1021.65 1021.55 1021.45 1021.37 1021.33 1021.30 1021.28 1021.23 1021.15 1021.02 1020.85 1020.68 1020.52 1020.41 1020.34 1020.30 1020.29 1020.27 1020.22 1020.14 1020.01 1019.87 1019.71
1017.49 1017.80 1018.16 1018.57 1019.01 1019.43 1019.79 1020.07 1020.27 1020.41 1020.52 1020.65 1020.82 1021.05 1021.31 1021.57 1021.79 1021.93 1021.99 1021.95 1021.86 1021.74 1021.63 1021.56 1021.52 1021.50 1021.48 1021.44 1021.35 1021.22 1021.06 1020.89 1020.74 1020.65 1020.60 1020.59 1020.60 1020.59 1020.55 1020.46 1020.33 1020.17 1020.01
1017.47 1017.83 1018.25 1018.72 1019.20 1019.64 1020.01 1020.29 1020.48 1020.61 1020.72 1020.85 1021.03 1021.26 1021.52 1021.77 1021.97 1022.09 1022.11 1022.05 1021.93 1021.80 1021.69 1021.62 1021.60 1021.60 1021.60 1021.58 1021.50 1021.38 1021.24 1021.08 1020.96 1020.87 1020.84 1020.84 1020.86 1020.85 1020.80 1020.70 1020.56 1020.39 1020.23
1017.45 1017.85 1018.32 1018.83 1019.35 1019.82 1020.21 1020.49 1020.67 1020.79 1020.90 1021.02 1021.19 1021.41 1021.66 1021.89 1022.06 1022.15 1022.14 1022.05 1021.92 1021.78 1021.68 1021.62 1021.62 1021.64 1021.67 1021.67 1021.61 1021.52 1021.39 1021.26 1021.14 1021.08 1021.05 1021.05 1021.05 1021.03 1020.96 1020.84 1020.68 1020.50 1020.34
1017.42 1017.84 1018.34 1018.90 1019.45 1019.95 1020.34 1020.63 1020.81 1020.92 1021.01 1021.13 1021.29 1021.49 1021.72 1021.93 1022.08 1022.15 1022.13 1022.03 1021.89 1021.75 1021.66 1021.62 1021.63 1021.67 1021.71 1021.73 1021.70 1021.62 1021.51 1021.39 1021.29 1021.23 1021.20 1021.19 1021.17 1021.12 1021.02 1020.88 1020.70 1020.51 1020.34
1017.37 1017.79 1018.32 1018.89 1019.47 1019.98 1020.39 1020.68 1020.85 1020.97 1021.05 1021.16 1021.32 1021.51 1021.73 1021.93 1022.08 1022.14 1022.11 1022.01 1021.88 1021.76 1021.67 1021.63 1021.65 1021.70 1021.74 1021.76 1021.73 1021.66 1021.56 1021.46 1021.37 1021.30 1021.27 1021.24 1021.20 1021.13 1021.00 1020.83 1020.63 1020.42 1020.25
1017.29 1017.71 1018.23 1018.81 1019.39 1019.91 1020.33 1020.62 1020.80 1020.92 1021.01 1021.12 1021.28 1021.48 1021.70 1021.90 1022.05 1022.12 1022.10 1022.02 1021.91 1021.79 1021.71 1021.67 1021.68 1021.72 1021.75 1021.76 1021.72 1021.65 1021.55 1021.44 1021.36 1021.30 1021.26 1021.22 1021.17 1021.08 1020.93 1020.74 1020.52 1020.30 1020.11
1017.19 1017.58 1018.09 1018.66 1019.23 1019.75 1020.16 1020.46 1020.65 1020.78 1020.89 1021.02 1021.18 1021.39 1021.62 1021.84 1022.00 1022.09 1022.10 1022.04 1021.94 1021.84 1021.76 1021.72 1021.71 1021.72 1021.72 1021.70 1021.65 1021.56 1021.45 1021.35 1021.26 1021.21 1021.17 1021.14 1021.09 1020.99 1020.85 1020.65 1020.42 1020.18 1019.97
1017.05 1017.42 1017.90 1018.45 1019.00 1019.50 1019.91 1020.22 1020.42 1020.57 1020.70 1020.85 1021.04 1021.26 1021.51 1021.74 1021.92 1022.03 1022.06 1022.03 1021.95 1021.86 1021.79 1021.74 1021.71 1021.69 1021.66 1021.61 1021.52 1021.41 1021.29 1021.19 1021.11 1021.06 1021.04 1021.02 1020.99 1020.91 1020.78 1020.59 1020.37 1020.13 1019.90
1016.88 1017.22 1017.67 1018.19 1018.72 1019.20 1019.61 1019.91 1020.14 1020.31 1020.47 1020.65 1020.85 1021.10 1021.35 1021.60 1021.79 1021.92 1021.97 1021.96 1021.91 1021.84 1021.78 1021.72 1021.68 1021.64 1021.58 1021.50 1021.39 1021.26 1021.12 1021.01 1020.93 1020.89 1020.88 1020.89 1020.89 1020.85 1020.75 1020.59 1020.39 1020.16 1019.93
1016.65 1016.98 1017.41 1017.90 1018.40 1018.87 1019.27 1019.59 1019.84 1020.04 1020.23 1020.43 1020.66 1020.91 1021.17 1021.42 1021.62 1021.76 1021.83 1021.85 1021.82 1021.78 1021.73 1021.69 1021.65 1021.60 1021.53 1021.42 1021.29 1021.13 1020.98 1020.85 1020.76 1020.73 1020.73 1020.77 1020.79 1020.80 1020.75 1020.64 1020.47 1020.26 1020.04
1016.37 1016.70 1017.12 1017.59 1018.07 1018.53 1018.93 1019.27 1019.54 1019.78 1020.00 1020.23 1020.47 1020.73 1020.99 1021.22 1021.42 1021.57 1021.66 1021.70 1021.71 1021.70 1021.69 1021.68 1021.65 1021.61 1021.53 1021.42 1021.26 1021.09 1020.91 1020.76 1020.65 1020.60 1020.60 1020.65 1020.70 1020.75 1020.75 1020.70 1020.59 1020.42 1020.22
1016.05 1016.39 1016.80 1017.26 1017.74 1018.19 1018.61 1018.98 1019.29 1019.57 1019.83 1020.09 1020.34 1020.59 1020.84 1021.06 1021.25 1021.40 1021.50 1021.57 1021.62 1021.66 1021.70 1021.72 1021.73 1021.71 1021.65 1021.53 1021.36 1021.16 1020.95 1020.76 1020.61 1020.53 1020.50 1020.54 1020.61 1020.68 1020.73 1020.74 1020.69 1020.58 1020.42
1015.67 1016.04 1016.46 1016.92 1017.40 1017.88 1018.32 1018.73 1019.10 1019.43 1019.73 1020.02 1020.28 1020.54 1020.77 1020.98 1021.15 1021.30 1021.42 1021.52 1021.61 1021.70 1021.79 1021.87 1021.92 1021.93 1021.88 1021.77 1021.59 1021.36 1021.11 1020.87 1020.66 1020.52 1020.45 1020.45 1020.50 1020.59 1020.67 1020.73 1020.74 1020.69 1020.59
1015.27 1015.66 1016.10 1016.58 1017.07 1017.58 1018.07 1018.54 1018.97 1019.36 1019.71 1020.03 1020.32 1020.57 1020.80 1021.00 1021.17 1021.32 1021.45 1021.58 1021.72 1021.85 1021.99 1022.11 1022.21 1022.25 1022.22 1022.11 1021.92 1021.67 1021.38 1021.07 1020.80 1020.58 1020.44 1020.39 1020.40 1020.47 1020.57 1020.66 1020.73 1020.74 1020.69
1014.87 1015.29 1015.74 1016.23 1016.76 1017.30 1017.85 1018.38 1018.88 1019.34 1019.76 1020.12 1020.43 1020.69 1020.92 1021.11 1021.28 1021.44 1021.60 1021.76 1021.93 1022.11 1022.29 1022.45 1022.57 1022.63 1022.62 1022.51 1022.32 1022.05 1021.72 1021.37 1021.03 1020.73 1020.52 1020.38 1020.34 1020.37 1020.46 1020.56 1020.66 1020.72 1020.71
1014.50 1014.93 1015.39 1015.90 1016.45 1017.04 1017.64 1018.24 1018.82 1019.35 1019.82 1020.23 1020.57 1020.86 1021.09 1021.29 1021.48 1021.65 1021.83 1022.02 1022.22 1022.43 1022.63 1022.81 1022.95 1023.03 1023.02 1022.93 1022.73 1022.46 1022.11 1021.72 1021.34 1020.98 1020.69 1020.48 1020.36 1020.34 1020.38 1020.47 1020.57 1020.65 1020.68
1014.19 1014.62 1015.08 1015.59 1016.16 1016.78 1017.43 1018.09 1018.74 1019.33 1019.86 1020.31 1020.69 1021.00 1021.25 1021.47 1021.68 1021.88 1022.08 1022.30 1022.52 1022.75 1022.96 1023.15 1023.29 1023.38 1023.38 1023.30 1023.12 1022.86 1022.52 1022.13 1021.73 1021.33 1020.98 1020.70 1020.51 1020.41 1020.39 1020.43 1020.50 1020.57 1020.60
1013.96 1014.37 1014.81 1015.30 1015.87 1016.51 1017.19 1017.90 1018.59 1019.23 1019.81 1020.29 1020.70 1021.04 1021.32 1021.57 1021.81 1022.04 1022.28 1022.52 1022.76 1023.00 1023.22 1023.40 1023.54 1023.63 1023.65 1023.58 1023.45 1023.22 1022.93 1022.58 1022.18 1021.78 1021.40 1021.06 1020.80 1020.61 1020.51 1020.47 1020.48 1020.51 1020.51
1013.80 1014.17 1014.57 1015.04 1015.58 1016.21 1016.90 1017.62 1018.33 1019.00 1019.60 1020.12 1020.55 1020.92 1021.23 1021.52 1021.79 1022.07 1022.34 1022.62 1022.89 1023.13 1023.35 1023.53 1023.67 1023.76 1023.79 1023.77 1023.69 1023.53 1023.31 1023.02 1022.68 1022.31 1021.92 1021.55 1021.22 1020.94 1020.74 1020.60 1020.52 1020.47 1020.43
1013.69 1014.00 1014.35 1014.76 1015.27 1015.86 1016.53 1017.24 1017.94 1018.61 1019.22 1019.75 1020.20 1020.59 1020.94 1021.27 1021.60 1021.92 1022.25 1022.56 1022.85 1023.12 1023.34 1023.52 1023.66 1023.76 1023.83 1023.85 1023.83 1023.77 1023.64 1023.44 1023.17 1022.85 1022.48 1022.08 1021.70 1021.34 1021.04 1020.79 1020.60 1020.46 1020.33
1013.58 1013.84 1014.12 1014.46 1014.91 1015.45 1016.07 1016.74 1017.42 1018.07 1018.67 1019.20 1019.67 1020.08 1020.47 1020.85 1021.22 1021.61 1021.99 1022.35 1022.68 1022.97 1023.20 1023.39 1023.54 1023.66 1023.75 1023.83 1023.88 1023.90 1023.86 1023.76 1023.58 1023.31 1022.97 1022.57 1022.15 1021.72 1021.32 1020.96 1020.66 1020.42 1020.21
1013.45 1013.63 1013.85 1014.12 1014.50 1014.97 1015.53 1016.15 1016.79 1017.41 1017.99 1018.52 1018.99 1019.43 1019.85 1020.28 1020.72 1021.16 1021.60 1022.01 1022.38 1022.70 1022.96 1023.16 1023.32 1023.45 1023.58 1023.69 1023.80 1023.89 1023.94 1023.92 1023.82 1023.61 1023.30 1022.91 1022.46 1021.98 1021.50 1021.06 1020.66 1020.33 1020.04
Thickness
5729 5726 5722 5719 5717 5715 5713 5712 5710 5709 5707 5706 5705 5704 5703 5702 5701 5701 5701 5700 5700 5699 5699 5699 5699 5699 5699 5699 5699 5699 5699 5700 5701 5701 5702 5702 5703 5703 5704 5704 5705 5705 5706
5731 5724 5720 5717 5714 5712 5710 5708 5707 5705 5703 5701 5700 5699 5698 5697 5696 5695 5695 5694 5694 5693 5693 5693 5693 5692 5692 5692 5692 5692 5692 5693 5694 5695 5695 5695 5696 5696 5696 5697 5697 5698 5699
5730 5723 5718 5715 5712 5709 5707 5705 5703 5700 5698 5697 5695 5694 5693 5692 5691 5690 5689 5688 5688 5687 5687 5686 5686 5686 5685 5685 5685 5685 5685 5686 5687 5688 5688 5688 5688 5689 5689 5689 5690 5690 5691
5729 5721 5717 5712 5709 5707 5704 5701 5699 5696 5694 5693 5691 5689 5688 5686 5685 5684 5683 5682 5681 5681 5680 5680 5679 5679 5679 5678 5678 5678 5678 5679 5680 5681 5680 5680 5681 5681 5682 5682 5682 5683 5683
5728 5721 5715 5710 5707 5704 5701 5698 5695 5693 5691 5689 5687 5685 5683 5681 5680 5678 5677 5676 5675 5675 5674 5673 5673 5673 5672 5672 5671 5671 5671 5672 5673 5673 5673 5673 5673 5674 5675 5675 5675 5675 5676
5726 5719 5712 5708 5705 5701 5698 5695 5692 5690 5687 5685 5682 5680 5678 5676 5675 5673 5672 5671 5670 5669 5668 5668 5667 5667 5666 5666 5665 5665 5665 5666 5667 5667 5667 5666 5666 5667 5668 5668 5668 5669 5669
5726 5718 5711 5706 5702 5699 5695 5692 5689 5686 5683 5680 5678 5676 5674 5672 5670 5668 5667 5665 5664 5663 5663 5662 5662 5661 5661 5660 5660 5660 5660 5660 5661 5661 5661 5660 5660 5660 5661 5661 5662 5663 5663
5725 5717 5709 5704 5700 5696 5693 5689 5686 5683 5680 5677 5674 5672 5669 5667 5666 5664 5662 5660 5659 5658 5657 5657 5656 5656 5655 5655 5655 5655 5655 5655 5656 5656 5656 5655 5654 5654 5655 5655 5656 5657 5657
5724 5716 5707 5702 5698 5694 5690 5686 5683 5679 5676 5673 5670 5668 5665 5663 5661 5659 5657 5656 5654 5653 5652 5651 5651 5650 5650 5650 5649 5649 5650 5650 5650 5651 5650 5649 5648 5648 5649 5649 5650 5650 5651
5722 5715 5707 5701 5696 5691 5687 5683 5680 5676 5673 5670 5667 5664 5661 5659 5657 5655 5653 5651 5650 5648 5647 5646 5646 5645 5645 5645 5644 5644 5644 5645 5646 5646 5645 5643 5642 5642 5643 5643 5644 5644 5645
5718 5714 5708 5702 5696 5691 5686 5681 5677 5673 5670 5666 5663 5661 5658 5656 5654 5651 5649 5647 5646 5644 5643 5642 5641 5641 5640 5640 5639 5639 5639 5640 5640 5640 5639 5638 5637 5636 5636 5637 5637 5638 5638
5713 5711 5708 5702 5696 5691 5685 5679 5675 5671 5667 5664 5661 5658 5655 5653 5651 5648 5645 5643 5641 5640 5639 5638 5637 5636 5636 5636 5635 5634 5634 5635 5635 5635 5633 5632 5631 5630 5630 5631 5631 5631 5632
5713 5709 5706 5702 5695 5690 5684 5678 5674 5669 5665 5662 5659 5655 5653 5650 5647 5644 5642 5639 5638 5636 5635 5634 5633 5632 5632 5631 5631 5630 5630 5630 5630 5629 5628 5627 5626 5625 5625 5625 5625 5625 5626
5712 5708 5704 5700 5694 5688 5683 5678 5673 5668 5664 5660 5656 5653 5650 5647 5644 5641 5638 5636 5634 5632 5631 5629 5628 5628 5627 5627 5626 5625 5625 5624 5624 5624 5623 5622 5620 5619 5618 5618 5618 5619 5619
5711 5706 5702 5698 5692 5687 5682 5676 5671 5667 5662 5658 5653 5650 5647 5643 5640 5637 5634 5632 5630 5628 5626 5624 5623 5623 5622 5621 5620 5619 5619 5618 5618 5618 5617 5616 5615 5613 5612 5612 5611 5611 5611
5710 5705 5701 5696 5690 5685 5679 5674 5669 5665 5660 5655 5650 5646 5643 5639 5635 5632 5629 5627 5624 5622 5621 5619 5618 5617 5615 5614 5613 5613 5612 5612 5611 5611 5610 5609 5608 5607 5605 5604 5604 5603 5603
5710 5705 5699 5693 5688 5683 5677 5672 5666 5661 5656 5651 5647 5643 5639 5635 5631 5628 5624 5622 5619 5617 5615 5613 5612 5610 5609 5608 5607 5606 5606 5605 5604 5604 5603 5602 5601 5599 5597 5596 5595 5594 5594
5709 5703 5697 5692 5686 5680 5675 5669 5664 5659 5653 5648 5643 5639 5634 5630 5627 5623 5619 5616 5614 5611 5609 5607 5605 5603 5601 5600 5599 5598 5598 5597 5597 5596 5595 5594 5593 5591 5589 5587 5585 5584 5583
5707 5701 5695 5689 5683 5678 5672 5666 5660 5655 5650 5645 5640 5635 5630 5626 5622 5618 5615 5612 5609 5606 5603 5601 5598 5595 5593 5591 5591 5590 5590 5590 5590 5589 5587 5586 5584 5582 5580 5578 5576 5575 5573
5705 5699 5693 5686 5680 5674 5668 5662 5656 5651 5646 5641 5636 5631 5626 5622 5618 5614 5610 5607 5603 5600 5596 5593 5590 5588 5585 5583 5583 5583 5583 5584 5584 5582 5579 5577 5575 5572 5570 5568 5567 5565 5563
5700 5695 5689 5682 5676 5671 5664 5657 5650 5645 5641 5636 5632 5627 5622 5618 5614 5609 5605 5601 5597 5593 5589 5586 5583 5579 5576 5574 5572 5572 5574 5577 5577 5574 5570 5567 5565 5562 5560 5558 5556 5554 5552
5695 5690 5685 5680 5673 5667 5662 5655 5649 5642 5637 5632 5627 5623 5618 5613 5609 5604 5599 5595 5591 5586 5582 5578 5574 5570 5567 5564 5560 5557 5557 5561 5564 5564 5559 5557 5554 5552 5549 5547 5545 5543 5541
5690 5686 5682 5677 5670 5664 5658 5651 5644 5637 5631 5625 5621 5617 5613 5609 5604 5599 5594 5589 5584 5580 5574 5570 5566 5562 5556 5553 5550 5544 5539 5538 5543 5549 5549 5546 5543 5540 5538 5536 5535 5532 5530
5687 5682 5677 5672 5666 5659 5654 5647 5640 5633 5626 5622 5618 5612 5608 5603 5598 5593 5588 5583 5578 5573 5568 5563 5559 5554 5549 5543 5540 5536 5532 5528 5524 5528 5534 5534 5531 5529 5527 5525 5523 5521 5519
5683 5677 5671 5666 5660 5655 5649 5643 5636 5630 5624 5619 5613 5607 5602 5597 5592 5587 5582 5576 5571 5566 5561 5556 5551 5546 5540 5535 5530 5526 5522 5518 5514 5510 5515 5519 5519 5517 5515 5513 5511 5509 5507
5676 5670 5665 5660 5655 5650 5644 5639 5633 5626 5620 5614 5608 5602 5596 5591 5586 5581 5575 5570 5564 5559 5553 5548 5543 5537 5532 5527 5522 5517 5511 5506 5502 5498 5498 5503 5504 5505 5503 5500 5498 5496 5493